Weather History for Wahpeton, ND

Change the Weather History Date:

Tuesday, August 6, 2013

  Actual Average (KFFM) Record (KFFM)
Temperature  
Mean Temperature 66 °F -  
Max Temperature 80 °F 81 °F 93 °F (1968)
Min Temperature 53 °F 59 °F 45 °F (1989)
Cooling Degree Days 2    
Growing Degree Days 16 (Base 50)    
Moisture  
Dew Point 57 °F    
Average Humidity 80    
Maximum Humidity 94    
Minimum Humidity 48    
Precipitation  
Precipitation 0.36 in - - ()
Sea Level Pressure  
Sea Level Pressure 29.78 in    
Wind  
Wind Speed 6 mph (East)    
Max Wind Speed 31 mph    
Max Gust Speed 41 mph    
Visibility 10 miles    
Events      
Averages and records for this station are not official NWS values.
T = Trace of Precipitation, MM = Missing Value Source: NWS Daily Summary

Daily Weather History Graph

Daily Weather History Graph

Search for Another Location

Airport:

Trip Planner

Search our weather history database for the weather conditions in past years. The results will help you decide how hot, cold, wet, or windy it might be!

Date:

Astronomy

Aug. 06, 2013 Rise Set
Actual Time 6:14 AM CDT 8:49 PM CDT
Civil Twilight 5:40 AM CDT 9:23 PM CDT
Nautical Twilight 4:57 AM CDT 10:05 PM CDT
Astronomical Twilight 4:08 AM CDT 10:54 PM CDT
Moon 6:10 AM CDT (8/6) 8:19 PM CDT (8/6)
Length of Visible Light 15h 42m
Length of Day
14h 34m
Waning Crescent, 0% of the Moon is Illuminated
Aug 6
Waning Crescent
Aug 6
New
Aug 14
First Quarter
Aug 20
Full
Aug 28
Last Quarter

Hourly Weather History & Observations

Time (CDT) Temp. Heat Index Dew Point Humidity Pressure Visibility Wind Dir Wind Speed Gust Speed Precip Events Conditions
12:15 AM 55.4 °F - 51.8 °F 88% 29.86 in 10.0 mi SE 3.5 mph - N/A   Clear
12:35 AM 53.6 °F - 51.8 °F 94% 29.85 in 10.0 mi ESE 5.8 mph - N/A   Clear
12:55 AM 55.4 °F - 51.8 °F 88% 29.83 in 10.0 mi SSE 5.8 mph - N/A   Clear
1:15 AM 53.6 °F - 51.8 °F 94% 29.84 in 10.0 mi SSE 4.6 mph - N/A   Clear
1:35 AM 53.6 °F - 50.0 °F 88% 29.84 in 10.0 mi Calm Calm - N/A   Clear
1:55 AM 53.6 °F - 51.8 °F 94% 29.83 in 10.0 mi Calm Calm - N/A   Clear
2:15 AM 53.6 °F - 50.0 °F 88% 29.82 in 10.0 mi SSE 5.8 mph - N/A   Clear
2:35 AM 53.6 °F - 50.0 °F 88% 29.81 in 10.0 mi SE 3.5 mph - N/A   Clear
2:55 AM 55.4 °F - 51.8 °F 88% 29.80 in 10.0 mi SE 4.6 mph - N/A   Clear
3:15 AM 53.6 °F - 51.8 °F 94% 29.79 in 10.0 mi SSE 4.6 mph - N/A   Clear
3:35 AM 53.6 °F - 50.0 °F 88% 29.78 in 10.0 mi SE 5.8 mph - N/A   Clear
3:55 AM 53.6 °F - 50.0 °F 88% 29.78 in 10.0 mi SE 3.5 mph - N/A   Clear
4:15 AM 53.6 °F - 50.0 °F 88% 29.77 in 10.0 mi SSE 4.6 mph - N/A   Clear
4:35 AM 53.6 °F - 50.0 °F 88% 29.77 in 10.0 mi SSE 3.5 mph - N/A   Clear
4:55 AM 53.6 °F - 50.0 °F 88% 29.77 in 10.0 mi SSE 4.6 mph - N/A   Clear
5:15 AM 53.6 °F - 50.0 °F 88% 29.77 in 10.0 mi SSE 4.6 mph - N/A   Clear
5:35 AM 55.4 °F - 51.8 °F 88% 29.78 in 10.0 mi SSE 6.9 mph - N/A   Mostly Cloudy
5:55 AM 55.4 °F - 51.8 °F 88% 29.78 in 10.0 mi SSE 5.8 mph - N/A   Scattered Clouds
6:15 AM 57.2 °F - 53.6 °F 88% 29.77 in 10.0 mi SSE 4.6 mph - N/A   Mostly Cloudy
6:35 AM 57.2 °F - 53.6 °F 88% 29.81 in 10.0 mi NW 12.7 mph - N/A   Overcast
6:55 AM 57.2 °F - 53.6 °F 88% 29.79 in 1.5 mi Calm Calm - N/A   Overcast
7:15 AM 59.0 °F - 55.4 °F 88% 29.76 in 10.0 mi SSE 8.1 mph - N/A   Overcast
7:35 AM 59.0 °F - 55.4 °F 88% 29.74 in 10.0 mi SSE 11.5 mph - N/A   Scattered Clouds
7:55 AM 60.8 °F - 55.4 °F 82% 29.74 in 10.0 mi SSE 9.2 mph - N/A   Scattered Clouds
8:15 AM 62.6 °F - 57.2 °F 82% 29.75 in 10.0 mi South 9.2 mph - N/A   Mostly Cloudy
8:35 AM 62.6 °F - 59.0 °F 88% 29.78 in 10.0 mi NNE 4.6 mph - N/A   Overcast
8:55 AM 62.6 °F - 59.0 °F 88% 29.77 in 10.0 mi ENE 3.5 mph - N/A   Mostly Cloudy
9:15 AM 64.4 °F - 59.0 °F 83% 29.75 in 10.0 mi ESE 5.8 mph - N/A   Scattered Clouds
9:35 AM 66.2 °F - 59.0 °F 78% 29.75 in 10.0 mi SE 5.8 mph - N/A   Scattered Clouds
9:55 AM 68.0 °F - 60.8 °F 78% 29.74 in 10.0 mi ESE 8.1 mph - N/A   Scattered Clouds
10:15 AM 68.0 °F - 60.8 °F 78% 29.74 in 10.0 mi SE 8.1 mph - N/A   Scattered Clouds
10:35 AM 69.8 °F - 60.8 °F 73% 29.73 in 10.0 mi SE 6.9 mph - N/A   Scattered Clouds
10:55 AM 69.8 °F - 60.8 °F 73% 29.73 in 10.0 mi SE 6.9 mph - N/A   Mostly Cloudy
11:15 AM 71.6 °F - 60.8 °F 69% 29.73 in 10.0 mi South 4.6 mph - N/A   Scattered Clouds
11:35 AM 71.6 °F - 60.8 °F 69% 29.74 in 10.0 mi SE 3.5 mph - N/A   Scattered Clouds
11:55 AM 71.6 °F - 59.0 °F 64% 29.73 in 10.0 mi Calm Calm - N/A   Scattered Clouds
12:15 PM 73.4 °F - 60.8 °F 65% 29.73 in 10.0 mi SE 4.6 mph - N/A   Mostly Cloudy
12:35 PM 73.4 °F - 60.8 °F 65% 29.73 in 10.0 mi SW 4.6 mph - N/A   Scattered Clouds
12:55 PM 77.0 °F - 60.8 °F 57% 29.74 in 10.0 mi WSW 5.8 mph - N/A   Scattered Clouds
1:15 PM 77.0 °F - 60.8 °F 57% 29.74 in 10.0 mi West 5.8 mph - N/A   Mostly Cloudy
1:35 PM 77.0 °F - 60.8 °F 57% 29.73 in 10.0 mi West 4.6 mph - N/A   Mostly Cloudy
1:55 PM 77.0 °F - 59.0 °F 54% 29.72 in 10.0 mi Calm Calm - N/A   Scattered Clouds
2:15 PM 77.0 °F - 59.0 °F 54% 29.72 in 10.0 mi WNW 4.6 mph - N/A   Mostly Cloudy
2:35 PM 77.0 °F - 60.8 °F 57% 29.72 in 10.0 mi NW 8.1 mph - N/A   Overcast
2:55 PM 78.8 °F - 60.8 °F 54% 29.72 in 10.0 mi West 9.2 mph - N/A   Overcast
3:15 PM 78.8 °F - 59.0 °F 51% 29.71 in 10.0 mi WNW 8.1 mph - N/A   Scattered Clouds
3:35 PM 78.8 °F - 59.0 °F 51% 29.70 in 10.0 mi West 8.1 mph - N/A   Clear
3:55 PM 78.8 °F - 59.0 °F 51% 29.69 in 10.0 mi WNW 5.8 mph - N/A   Scattered Clouds
4:15 PM 80.6 °F 81.1 °F 59.0 °F 48% 29.69 in 10.0 mi Calm Calm - N/A   Scattered Clouds
4:35 PM 78.8 °F - 59.0 °F 51% 29.74 in 10.0 mi NNW 31.1 mph 41.4 mph N/A   Scattered Clouds
4:55 PM 62.6 °F - 59.0 °F 88% 29.72 in 5.0 mi NNE 17.3 mph 40.3 mph 0.33 in   Mostly Cloudy
5:15 PM 62.6 °F - 60.8 °F 94% 29.70 in 10.0 mi NE 6.9 mph - N/A   Scattered Clouds
5:35 PM 62.6 °F - 60.8 °F 94% 29.73 in 10.0 mi North 13.8 mph 23.0 mph 0.01 in   Scattered Clouds
5:55 PM 62.6 °F - 60.8 °F 94% 29.77 in 10.0 mi North 15.0 mph 19.6 mph 0.01 in   Mostly Cloudy
6:15 PM 62.6 °F - 60.8 °F 94% 29.80 in 7.0 mi North 12.7 mph 23.0 mph 0.01 in   Overcast
6:35 PM 62.6 °F - 60.8 °F 94% 29.76 in 10.0 mi NE 12.7 mph 21.9 mph 0.02 in   Overcast
6:55 PM 62.6 °F - 60.8 °F 94% 29.77 in 10.0 mi Calm Calm - 0.02 in   Mostly Cloudy
7:15 PM 64.4 °F - 60.8 °F 88% 29.77 in 10.0 mi North 4.6 mph - N/A   Scattered Clouds
7:35 PM 64.4 °F - 60.8 °F 88% 29.78 in 10.0 mi NNW 11.5 mph 18.4 mph N/A   Scattered Clouds
7:55 PM 64.4 °F - 60.8 °F 88% 29.79 in 10.0 mi NNW 10.4 mph - N/A   Mostly Cloudy
8:15 PM 62.6 °F - 59.0 °F 88% 29.80 in 10.0 mi NNW 8.1 mph - N/A   Scattered Clouds
8:35 PM 62.6 °F - 59.0 °F 88% 29.81 in 10.0 mi NNW 8.1 mph - N/A   Scattered Clouds
8:55 PM 62.6 °F - 59.0 °F 88% 29.83 in 10.0 mi NNW 11.5 mph - N/A   Mostly Cloudy
9:15 PM 62.6 °F - 59.0 °F 88% 29.84 in 10.0 mi NNW 9.2 mph - N/A   Mostly Cloudy
9:35 PM 62.6 °F - 57.2 °F 82% 29.85 in 10.0 mi North 12.7 mph - N/A   Scattered Clouds
9:55 PM 62.6 °F - 57.2 °F 82% 29.86 in 10.0 mi North 12.7 mph 21.9 mph N/A   Mostly Cloudy
10:15 PM 60.8 °F - 57.2 °F 88% 29.87 in 10.0 mi North 12.7 mph 17.3 mph N/A   Overcast
10:35 PM 60.8 °F - 57.2 °F 88% 29.87 in 10.0 mi North 12.7 mph 18.4 mph N/A   Overcast
10:55 PM 60.8 °F - 57.2 °F 88% 29.88 in 10.0 mi North 10.4 mph - N/A   Overcast
11:15 PM 60.8 °F - 57.2 °F 88% 29.89 in 10.0 mi North 12.7 mph 16.1 mph N/A   Overcast
11:35 PM 60.8 °F - 55.4 °F 82% 29.90 in 10.0 mi North 12.7 mph 16.1 mph N/A   Overcast
11:55 PM 60.8 °F - 55.4 °F 82% 29.90 in 10.0 mi NNW 10.4 mph - N/A   Mostly Cloudy